| time (UTC) | temp F | wind direction | speed MPH | gust MPH | rain 1hr in | rain 24hr in | rain mn in | humidity % | barometer mb |
| 20260504221458 | 74 | 188 | 7.0 | 14.0 | 0.00 | 0.00 | 0.00 | 30 | 1009.3 |
| 20260504220458 | 74 | 224 | 5.0 | 14.0 | 0.00 | 0.00 | 0.00 | 33 | 1009.4 |
| 20260504215455 | 74 | 215 | 6.0 | 12.0 | 0.00 | 0.00 | 0.00 | 33 | 1009.6 |
| 20260504214446 | 74 | 233 | 5.0 | 12.0 | 0.00 | 0.00 | 0.00 | 33 | 1009.6 |
| 20260504213443 | 73 | 217 | 6.0 | 12.0 | 0.00 | 0.00 | 0.00 | 35 | 1009.9 |
| 20260504212449 | 74 | 230 | 6.0 | 13.0 | 0.00 | 0.00 | 0.00 | 33 | 1009.7 |
| 20260504211506 | 72 | 198 | 5.0 | 13.0 | 0.00 | 0.00 | 0.00 | 36 | 1010.0 |
| 20260504210431 | 73 | 221 | 5.0 | 12.0 | 0.00 | 0.00 | 0.00 | 36 | 1010.1 |
| 20260504205420 | 72 | 220 | 5.0 | 11.0 | 0.00 | 0.00 | 0.00 | 38 | 1010.0 |
| 20260504204433 | 73 | 236 | 5.0 | 12.0 | 0.00 | 0.00 | 0.00 | 37 | 1010.0 |
| 20260504203408 | 73 | 182 | 4.0 | 12.0 | 0.00 | 0.00 | 0.00 | 38 | 1010.3 |
| 20260504202402 | 72 | 233 | 6.0 | 11.0 | 0.00 | 0.00 | 0.00 | 40 | 1010.2 |
| 20260504201422 | 72 | 256 | 5.0 | 11.0 | 0.00 | 0.00 | 0.00 | 41 | 1010.2 |
| 20260504200419 | 72 | 263 | 4.0 | 11.0 | 0.00 | 0.00 | 0.00 | 40 | 1010.3 |
| 20260504194339 | 72 | 220 | 6.0 | 13.0 | 0.00 | 0.00 | 0.00 | 40 | 1010.1 |
| 20260504191058 | 72 | 200 | 3.0 | 11.0 | 0.00 | 0.00 | 0.00 | 42 | 1010.0 |
| 20260504184925 | 71 | 192 | 3.0 | 9.0 | 0.00 | 0.00 | 0.00 | 44 | 1010.1 |
| 20260504183910 | 70 | 59 | 4.0 | 10.0 | 0.00 | 0.00 | 0.00 | 44 | 1010.2 |
| 20260504182929 | 71 | 235 | 4.0 | 10.0 | 0.00 | 0.00 | 0.00 | 44 | 1010.3 |
| 20260504181950 | 70 | 136 | 5.0 | 10.0 | 0.00 | 0.00 | 0.00 | 45 | 1010.3 |
| 20260504180935 | 70 | 240 | 5.0 | 10.0 | 0.00 | 0.00 | 0.00 | 45 | 1010.5 |
| 20260504175923 | 70 | 217 | 5.0 | 11.0 | 0.00 | 0.00 | 0.00 | 45 | 1010.3 |
| 20260504174854 | 70 | 263 | 5.0 | 11.0 | 0.00 | 0.00 | 0.00 | 45 | 1010.1 |
| 20260504173840 | 70 | 221 | 2.0 | 9.0 | 0.00 | 0.00 | 0.00 | 44 | 1009.5 |
| 20260504172815 | 69 | 200 | 2.0 | 10.0 | 0.00 | 0.00 | 0.00 | 45 | 1009.4 |
| 20260504171833 | 69 | 207 | 3.0 | 10.0 | 0.00 | 0.00 | 0.00 | 45 | 1009.7 |
| 20260504170805 | 69 | 234 | 4.0 | 10.0 | 0.00 | 0.00 | 0.00 | 45 | 1010.2 |
| 20260504150615 | 70 | 188 | 2.0 | 5.0 | 0.00 | 0.00 | 0.00 | 38 | 1009.7 |
| 20260504140457 | 67 | 120 | 0.0 | 0.0 | 0.00 | 0.00 | 0.00 | 43 | 1009.0 |
| 20260504130139 | 64 | 120 | 0.0 | 0.0 | 0.00 | 0.00 | 0.00 | 45 | 1008.6 |
| 20260504081720 | 70 | 98 | 0.0 | 0.0 | 0.00 | 0.00 | 0.00 | 38 | 1007.6 |
| 20260504080710 | 70 | 174 | 0.0 | 0.0 | 0.00 | 0.00 | 0.00 | 37 | 1007.7 |
| 20260504050409 | 75 | 253 | 2.0 | 9.0 | 0.00 | 0.00 | 0.00 | 24 | 1007.8 |
| 20260504045409 | 76 | 266 | 1.0 | 7.0 | 0.00 | 0.00 | 0.00 | 24 | 1007.7 |
| 20260504043217 | 77 | 191 | 4.0 | 10.0 | 0.00 | 0.00 | 0.00 | 22 | 1007.7 |
| 20260504042235 | 77 | 224 | 2.0 | 8.0 | 0.00 | 0.00 | 0.00 | 21 | 1007.5 |
| 20260504041252 | 78 | 167 | 4.0 | 18.0 | 0.00 | 0.00 | 0.00 | 20 | 1007.2 |
| 20260504040219 | 78 | 224 | 7.0 | 18.0 | 0.00 | 0.00 | 0.00 | 20 | 1007.1 |
| 20260504035156 | 79 | 246 | 6.0 | 14.0 | 0.00 | 0.00 | 0.00 | 20 | 1006.7 |
| 20260504034208 | 79 | 227 | 4.0 | 14.0 | 0.00 | 0.00 | 0.00 | 19 | 1006.5 |
| 20260504033144 | 79 | 217 | 7.0 | 14.0 | 0.00 | 0.00 | 0.00 | 19 | 1006.1 |
| 20260504032133 | 80 | 253 | 7.0 | 15.0 | 0.00 | 0.00 | 0.00 | 19 | 1006.0 |
| 20260504031144 | 80 | 147 | 6.0 | 15.0 | 0.00 | 0.00 | 0.00 | 19 | 1005.9 |
| 20260504030120 | 80 | 206 | 7.0 | 15.0 | 0.00 | 0.00 | 0.00 | 19 | 1005.7 |
| 20260504021737 | 82 | 217 | 9.0 | 17.0 | 0.00 | 0.00 | 0.00 | 18 | 1005.0 |
| 20260504020751 | 82 | 206 | 7.0 | 17.0 | 0.00 | 0.00 | 0.00 | 18 | 1004.8 |
| 20260504015717 | 83 | 217 | 7.0 | 17.0 | 0.00 | 0.00 | 0.00 | 17 | 1004.5 |
| 20260504014654 | 83 | 188 | 8.0 | 19.0 | 0.00 | 0.00 | 0.00 | 17 | 1004.2 |
| 20260504013633 | 84 | 229 | 9.0 | 19.0 | 0.00 | 0.00 | 0.00 | 16 | 1004.2 |
| 20260504012618 | 85 | 221 | 10.0 | 19.0 | 0.00 | 0.00 | 0.00 | 16 | 1004.1 |
| 20260504011602 | 85 | 278 | 11.0 | 19.0 | 0.00 | 0.00 | 0.00 | 16 | 1004.1 |
| 20260504010626 | 86 | 224 | 11.0 | 19.0 | 0.00 | 0.00 | 0.00 | 15 | 1004.2 |
| 20260504005650 | 87 | 195 | 9.0 | 15.0 | 0.00 | 0.00 | 0.00 | 15 | 1004.0 |
| 20260504003510 | 89 | 233 | 7.0 | 14.0 | 0.00 | 0.00 | 0.00 | 14 | 1004.0 |
| 20260504002435 | 89 | 174 | 4.0 | 11.0 | 0.00 | 0.00 | 0.00 | 14 | 1004.0 |
| 20260504001431 | 89 | 190 | 6.0 | 17.0 | 0.00 | 0.00 | 0.00 | 15 | 1004.1 |
| 20260504000436 | 89 | 220 | 9.0 | 17.0 | 0.00 | 0.00 | 0.00 | 15 | 1004.1 |
| 20260503234241 | 90 | 190 | 7.0 | 18.0 | 0.00 | 0.00 | 0.00 | 14 | 1004.0 |
| 20260503232110 | 89 | 253 | 9.0 | 16.0 | 0.00 | 0.00 | 0.00 | 15 | 1004.5 |
| 20260503225918 | 89 | 190 | 8.0 | 19.0 | 0.00 | 0.00 | 0.00 | 15 | 1004.7 |
| 20260503224942 | 89 | 144 | 7.0 | 19.0 | 0.00 | 0.00 | 0.00 | 14 | 1004.8 |
| 20260503223940 | 89 | 231 | 7.0 | 15.0 | 0.00 | 0.00 | 0.00 | 16 | 1005.1 |